Location: LewisvilleTX
(33.0462°N, 96.9942°W)
Time: 22:21:46
(UTC+00:00)

Envisat - Pass Details

Date: 07 October 2020
Orbit: 764 x 766 km, 98.1° (Epoch: 26 October)

Event Time Altitude Azimuth Distance (km) Brightness Sun altitude
Rises 00:33:03 0° 194° (SSW) 3,216 6.4 -6.7°
Reaches altitude 10° 00:35:39 10° 206° (SSW) 2,294 5.9 -7.2°
Maximum altitude 00:39:55 27° 264° (W) 1,425 5.5 -8.1°
Drops below altitude 10° 00:44:14 10° 322° (NW) 2,305 6.0 -9.0°
Sets 00:46:52 0° 334° (NNW) 3,235 6.6 -9.6°
